Time,TemperatureF,DewpointF,PressureIn,WindDirection,WindDirectionDegrees,WindSpeedMPH,WindSpeedGustMPH,Humidity,HourlyPrecipIn,Conditions,Clouds,dailyrainin,SoftwareType,DateUTC
2013-02-19 00:02:00,49.0,30.0,-100.00,North,351,4.0,12.0,45,0.00,,,-99.99,,2013-02-19 05:02:00,
2013-02-19 00:13:00,53.0,32.0,-100.00,WNW,300,4.0,12.0,47,0.00,,,-99.99,,2013-02-19 05:13:00,
2013-02-19 00:22:00,49.0,30.0,-100.00,NW,309,4.0,12.0,47,0.00,,,-99.99,,2013-02-19 05:22:00,
2013-02-19 00:32:00,48.0,30.0,-100.00,NW,306,4.0,12.0,47,0.00,,,-99.99,,2013-02-19 05:32:00,
2013-02-19 00:43:00,48.0,30.0,-100.00,NW,316,4.0,12.0,47,0.00,,,-99.99,,2013-02-19 05:43:00,
2013-02-19 00:52:00,48.0,30.0,-100.00,WNW,285,4.0,12.0,49,0.00,,,-99.99,,2013-02-19 05:52:00,
2013-02-19 01:03:00,48.0,30.0,-100.00,North,360,4.0,12.0,49,0.00,,,-99.99,,2013-02-19 06:03:00,
2013-02-19 01:12:00,51.0,32.0,-100.00,NNW,348,6.0,12.0,49,0.00,,,-99.99,,2013-02-19 06:12:00,
2013-02-19 01:22:00,48.0,30.0,-100.00,NNW,334,7.0,12.0,46,0.00,,,-99.99,,2013-02-19 06:22:00,
2013-02-19 01:32:00,51.0,32.0,-100.00,North,5,5.0,12.0,50,0.00,,,-99.99,,2013-02-19 06:32:00,
2013-02-19 01:42:00,50.0,32.0,-100.00,West,280,3.0,12.0,51,0.00,,,-99.99,,2013-02-19 06:42:00,
2013-02-19 01:52:00,51.0,32.0,-100.00,NW,310,5.0,12.0,47,0.00,,,-99.99,,2013-02-19 06:52:00,
2013-02-19 02:02:00,52.0,32.0,-100.00,North,355,5.0,12.0,46,0.00,,,-99.99,,2013-02-19 07:02:00,
2013-02-19 02:12:00,51.0,32.0,-100.00,North,358,8.0,12.0,51,0.00,,,-99.99,,2013-02-19 07:12:00,
2013-02-19 02:22:00,51.0,34.0,-100.00,NE,56,9.0,15.0,55,0.00,,,-99.99,,2013-02-19 07:22:00,
2013-02-19 02:32:00,51.0,34.0,-100.00,West,272,6.0,15.0,54,0.00,,,-99.99,,2013-02-19 07:32:00,
2013-02-19 02:42:00,51.0,32.0,-100.00,North,4,4.0,15.0,51,0.00,,,-99.99,,2013-02-19 07:42:00,
2013-02-19 02:52:00,51.0,32.0,-100.00,North,358,11.0,22.0,50,0.00,,,-99.99,,2013-02-19 07:52:00,
2013-02-19 03:02:00,48.0,36.0,-100.00,North,360,14.0,22.0,66,0.00,,,-99.99,,2013-02-19 08:02:00,
2013-02-19 03:11:00,46.0,37.0,-100.00,NNE,12,13.0,22.0,76,0.00,,,-99.99,,2013-02-19 08:11:00,
2013-02-19 03:22:00,45.0,37.0,-100.00,NNE,33,14.0,22.0,77,0.00,,,-99.99,,2013-02-19 08:22:00,
2013-02-19 03:32:00,44.0,37.0,-100.00,NNW,334,8.0,22.0,80,0.00,,,-99.99,,2013-02-19 08:32:00,
2013-02-19 03:42:00,44.0,37.0,-100.00,NNW,341,6.0,22.0,82,0.00,,,-99.99,,2013-02-19 08:42:00,
2013-02-19 03:52:00,44.0,39.0,-100.00,NNW,343,7.0,22.0,84,0.00,,,-99.99,,2013-02-19 08:52:00,
2013-02-19 04:02:00,44.0,39.0,-100.00,North,360,9.0,22.0,84,0.00,,,-99.99,,2013-02-19 09:02:00,
2013-02-19 04:11:00,45.0,39.0,-100.00,WNW,293,6.0,22.0,84,0.00,,,-99.99,,2013-02-19 09:11:00,
2013-02-19 04:22:00,45.0,39.0,-100.00,NW,320,6.0,22.0,82,0.00,,,-99.99,,2013-02-19 09:22:00,
2013-02-19 04:32:00,45.0,39.0,-100.00,NNW,347,4.0,22.0,84,0.00,,,-99.99,,2013-02-19 09:32:00,
2013-02-19 04:42:00,44.0,39.0,-100.00,NW,321,7.0,22.0,84,0.00,,,-99.99,,2013-02-19 09:42:00,
2013-02-19 04:52:00,44.0,39.0,-100.00,NNW,348,6.0,22.0,85,0.00,,,-99.99,,2013-02-19 09:52:00,
2013-02-19 05:02:00,44.0,39.0,-100.00,NNW,327,8.0,8.0,85,0.00,,,-99.99,,2013-02-19 10:02:00,
2013-02-19 05:11:00,41.0,36.0,-100.00,North,355,6.0,8.0,85,0.00,,,-99.99,,2013-02-19 10:11:00,
2013-02-19 05:22:00,41.0,36.0,-100.00,North,2,8.0,12.0,85,0.00,,,-99.99,,2013-02-19 10:22:00,
2013-02-19 05:32:00,41.0,36.0,-100.00,North,355,9.0,14.0,85,0.00,,,-99.99,,2013-02-19 10:32:00,
2013-02-19 05:42:00,42.0,37.0,-100.00,NNW,333,9.0,14.0,85,0.00,,,-99.99,,2013-02-19 10:42:00,
2013-02-19 05:52:00,41.0,36.0,-100.00,NW,312,7.0,14.0,85,0.00,,,-99.99,,2013-02-19 10:52:00,
2013-02-19 06:01:00,41.0,36.0,-100.00,North,350,6.0,14.0,86,0.00,,,-99.99,,2013-02-19 11:01:00,
2013-02-19 06:11:00,41.0,36.0,-100.00,WNW,300,7.0,14.0,85,0.00,,,-99.99,,2013-02-19 11:11:00,
2013-02-19 06:22:00,41.0,37.0,-100.00,North,358,6.0,14.0,86,0.00,,,-99.99,,2013-02-19 11:22:00,
2013-02-19 06:32:00,42.0,37.0,-100.00,NW,312,6.0,14.0,86,0.00,,,-99.99,,2013-02-19 11:32:00,
2013-02-19 06:42:00,42.0,37.0,-100.00,NNW,331,7.0,14.0,86,0.00,,,-99.99,,2013-02-19 11:42:00,
2013-02-19 06:52:00,42.0,37.0,-100.00,NNW,330,7.0,14.0,86,0.00,,,-99.99,,2013-02-19 11:52:00,
2013-02-19 07:02:00,42.0,37.0,-100.00,North,354,7.0,14.0,86,0.00,,,-99.99,,2013-02-19 12:02:00,
2013-02-19 07:12:00,43.0,37.0,-100.00,North,355,8.0,14.0,85,0.00,,,-99.99,,2013-02-19 12:12:00,
2013-02-19 07:22:00,43.0,37.0,-100.00,NNW,340,9.0,14.0,85,0.00,,,-99.99,,2013-02-19 12:22:00,
2013-02-19 07:32:00,43.0,37.0,-100.00,NNW,331,9.0,14.0,85,0.00,,,-99.99,,2013-02-19 12:32:00,
2013-02-19 07:42:00,43.0,37.0,-100.00,North,350,8.0,14.0,85,0.00,,,-99.99,,2013-02-19 12:42:00,
2013-02-19 07:52:00,43.0,37.0,-100.00,NW,324,7.0,14.0,85,0.00,,,-99.99,,2013-02-19 12:52:00,
2013-02-19 08:02:00,43.0,37.0,-100.00,NW,309,6.0,14.0,84,0.00,,,-99.99,,2013-02-19 13:02:00,
2013-02-19 08:11:00,43.0,37.0,-100.00,NNE,19,9.0,14.0,84,0.00,,,-99.99,,2013-02-19 13:11:00,
2013-02-19 08:22:00,43.0,37.0,-100.00,North,357,8.0,14.0,84,0.00,,,-99.99,,2013-02-19 13:22:00,
2013-02-19 08:32:00,43.0,37.0,-100.00,North,1,7.0,14.0,84,0.00,,,-99.99,,2013-02-19 13:32:00,
2013-02-19 08:42:00,44.0,39.0,-100.00,NNW,344,7.0,14.0,84,0.00,,,-99.99,,2013-02-19 13:42:00,
2013-02-19 08:52:00,42.0,37.0,-100.00,NNE,15,6.0,14.0,85,0.00,,,-99.99,,2013-02-19 13:52:00,
2013-02-19 09:02:00,43.0,39.0,-100.00,North,352,7.0,14.0,90,0.00,,,-99.99,,2013-02-19 14:02:00,
2013-02-19 09:12:00,43.0,39.0,-100.00,North,358,8.0,14.0,89,0.00,,,-99.99,,2013-02-19 14:12:00,
2013-02-19 09:22:00,43.0,39.0,-100.00,North,5,8.0,14.0,89,0.00,,,-99.99,,2013-02-19 14:22:00,
2013-02-19 09:33:00,43.0,39.0,-100.00,NNW,337,9.0,14.0,90,0.00,,,-99.99,,2013-02-19 14:33:00,
2013-02-19 09:42:00,40.0,37.0,-100.00,ENE,72,11.0,14.0,94,0.00,,,-99.99,,2013-02-19 14:42:00,
2013-02-19 09:52:00,39.0,37.0,-100.00,North,2,10.0,14.0,94,0.00,,,-99.99,,2013-02-19 14:52:00,
2013-02-19 10:02:00,37.0,34.0,-100.00,North,9,11.0,14.0,94,0.00,,,-99.99,,2013-02-19 15:02:00,
2013-02-19 10:11:00,35.0,34.0,-100.00,NE,39,11.0,14.0,95,0.00,,,-99.99,,2013-02-19 15:11:00,
2013-02-19 10:22:00,35.0,32.0,-100.00,East,81,9.0,14.0,95,0.00,,,-99.99,,2013-02-19 15:22:00,
2013-02-19 10:32:00,35.0,34.0,-100.00,ENE,63,6.0,14.0,97,0.00,,,-99.99,,2013-02-19 15:32:00,
2013-02-19 10:42:00,35.0,34.0,-100.00,NE,45,8.0,14.0,97,0.00,,,-99.99,,2013-02-19 15:42:00,
2013-02-19 10:52:00,36.0,34.0,-100.00,SE,139,6.0,14.0,97,0.00,,,-99.99,,2013-02-19 15:52:00,
2013-02-19 11:02:00,36.0,34.0,-100.00,NE,42,7.0,14.0,95,0.00,,,-99.99,,2013-02-19 16:02:00,
2013-02-19 11:11:00,36.0,34.0,-100.00,East,84,8.0,14.0,95,0.00,,,-99.99,,2013-02-19 16:11:00,
2013-02-19 11:22:00,35.0,32.0,-100.00,East,88,9.0,14.0,91,0.00,,,-99.99,,2013-02-19 16:22:00,
2013-02-19 11:32:00,36.0,32.0,-100.00,ENE,63,11.0,14.0,89,0.00,,,-99.99,,2013-02-19 16:32:00,
2013-02-19 11:42:00,35.0,32.0,-100.00,East,97,10.0,14.0,88,0.00,,,-99.99,,2013-02-19 16:42:00,
2013-02-19 11:52:00,35.0,32.0,-100.00,ENE,59,9.0,14.0,86,0.00,,,-99.99,,2013-02-19 16:52:00,
2013-02-19 12:01:00,35.0,32.0,-100.00,ENE,62,7.0,14.0,86,0.00,,,-99.99,,2013-02-19 17:01:00,
2013-02-19 12:11:00,37.0,32.0,-100.00,ENE,64,9.0,14.0,85,0.00,,,-99.99,,2013-02-19 17:11:00,
2013-02-19 12:21:00,38.0,34.0,-100.00,NNE,25,9.0,14.0,86,0.00,,,-99.99,,2013-02-19 17:21:00,
2013-02-19 12:32:00,34.0,30.0,-100.00,NNE,26,17.0,24.0,80,0.00,,,-99.99,,2013-02-19 17:32:00,
2013-02-19 12:42:00,36.0,30.0,-100.00,ENE,62,11.0,24.0,77,0.00,,,-99.99,,2013-02-19 17:42:00,
2013-02-19 12:52:00,34.0,27.0,-100.00,ENE,59,13.0,24.0,73,0.00,,,-99.99,,2013-02-19 17:52:00,
2013-02-19 13:02:00,35.0,28.0,-100.00,NE,56,10.0,24.0,73,0.00,,,-99.99,,2013-02-19 18:02:00,
2013-02-19 13:11:00,35.0,28.0,-100.00,East,96,12.0,24.0,73,0.00,,,-99.99,,2013-02-19 18:11:00,
2013-02-19 13:22:00,34.0,27.0,-100.00,ENE,76,12.0,24.0,73,0.00,,,-99.99,,2013-02-19 18:22:00,
2013-02-19 13:32:00,34.0,27.0,-100.00,ENE,74,15.0,24.0,72,0.00,,,-99.99,,2013-02-19 18:32:00,
2013-02-19 13:42:00,33.0,27.0,-100.00,NE,46,15.0,24.0,72,0.00,,,-99.99,,2013-02-19 18:42:00,
2013-02-19 13:52:00,33.0,25.0,-100.00,NNE,32,11.0,24.0,71,0.00,,,-99.99,,2013-02-19 18:52:00,
2013-02-19 14:01:00,33.0,27.0,-100.00,NNE,33,14.0,24.0,72,0.00,,,-99.99,,2013-02-19 19:01:00,
2013-02-19 14:11:00,33.0,27.0,-100.00,NNE,33,10.0,24.0,72,0.00,,,-99.99,,2013-02-19 19:11:00,
2013-02-19 14:21:00,32.0,25.0,-100.00,ENE,74,14.0,24.0,73,0.00,,,-99.99,,2013-02-19 19:21:00,
2013-02-19 14:32:00,32.0,25.0,-100.00,NE,46,13.0,24.0,73,0.00,,,-99.99,,2013-02-19 19:32:00,
2013-02-19 14:42:00,32.0,25.0,-100.00,NE,43,13.0,24.0,73,0.00,,,-99.99,,2013-02-19 19:42:00,
2013-02-19 14:52:00,32.0,25.0,-100.00,ENE,73,11.0,24.0,73,0.00,,,-99.99,,2013-02-19 19:52:00,
2013-02-19 15:02:00,32.0,25.0,-100.00,East,91,8.0,24.0,72,0.00,,,-99.99,,2013-02-19 20:02:00,
2013-02-19 15:12:00,31.0,25.0,-100.00,ENE,66,10.0,24.0,72,0.00,,,-99.99,,2013-02-19 20:12:00,
2013-02-19 15:22:00,31.0,25.0,-100.00,NE,36,11.0,24.0,73,0.00,,,-99.99,,2013-02-19 20:22:00,
2013-02-19 15:32:00,31.0,25.0,-100.00,NNE,22,11.0,24.0,75,0.00,,,-99.99,,2013-02-19 20:32:00,
2013-02-19 15:42:00,31.0,25.0,-100.00,ENE,77,9.0,24.0,76,0.00,,,-99.99,,2013-02-19 20:42:00,
2013-02-19 15:52:00,31.0,25.0,-100.00,East,93,9.0,24.0,76,0.00,,,-99.99,,2013-02-19 20:52:00,
2013-02-19 16:02:00,31.0,25.0,-100.00,ESE,110,10.0,24.0,76,0.00,,,-99.99,,2013-02-19 21:02:00,
2013-02-19 16:11:00,33.0,27.0,-100.00,ENE,72,11.0,24.0,73,0.00,,,-99.99,,2013-02-19 21:11:00,
2013-02-19 16:21:00,33.0,27.0,-100.00,NE,49,11.0,24.0,73,0.00,,,-99.99,,2013-02-19 21:21:00,
2013-02-19 16:32:00,33.0,27.0,-100.00,NNE,22,10.0,24.0,73,0.00,,,-99.99,,2013-02-19 21:32:00,
2013-02-19 16:42:00,33.0,27.0,-100.00,NNE,28,9.0,24.0,73,0.00,,,-99.99,,2013-02-19 21:42:00,
2013-02-19 16:51:00,33.0,27.0,-100.00,East,96,9.0,24.0,72,0.00,,,-99.99,,2013-02-19 21:51:00,
2013-02-19 17:02:00,33.0,27.0,-100.00,NE,56,8.0,24.0,71,0.00,,,-99.99,,2013-02-19 22:02:00,
2013-02-19 17:11:00,33.0,25.0,-100.00,ENE,74,14.0,24.0,67,0.00,,,-99.99,,2013-02-19 22:11:00,
2013-02-19 17:22:00,32.0,21.0,-100.00,East,93,13.0,24.0,62,0.00,,,-99.99,,2013-02-19 22:22:00,
2013-02-19 17:32:00,31.0,19.0,-100.00,ENE,66,11.0,24.0,59,0.00,,,-99.99,,2013-02-19 22:32:00,
2013-02-19 17:42:00,32.0,21.0,-100.00,ENE,62,11.0,24.0,59,0.00,,,-99.99,,2013-02-19 22:42:00,
2013-02-19 17:52:00,32.0,21.0,-100.00,ENE,76,12.0,24.0,60,0.00,,,-99.99,,2013-02-19 22:52:00,
2013-02-19 18:01:00,32.0,21.0,-100.00,East,81,12.0,24.0,60,0.00,,,-99.99,,2013-02-19 23:01:00,
2013-02-19 18:11:00,31.0,21.0,-100.00,ENE,74,12.0,24.0,64,0.00,,,-99.99,,2013-02-19 23:11:00,
2013-02-19 18:21:00,31.0,25.0,-100.00,East,81,11.0,24.0,73,0.00,,,-99.99,,2013-02-19 23:21:00,
2013-02-19 18:32:00,31.0,25.0,-100.00,NE,40,9.0,24.0,75,0.00,,,-99.99,,2013-02-19 23:32:00,
2013-02-19 18:42:00,31.0,25.0,-100.00,NE,39,9.0,24.0,76,0.00,,,-99.99,,2013-02-19 23:42:00,
2013-02-19 18:52:00,30.0,25.0,-100.00,NE,48,9.0,24.0,78,0.00,,,-99.99,,2013-02-19 23:52:00,
2013-02-19 19:01:00,30.0,27.0,-100.00,ENE,69,9.0,24.0,84,0.00,,,-99.99,,2013-02-20 00:01:00,
2013-02-19 19:11:00,29.0,27.0,-100.00,NNE,28,7.0,24.0,86,0.00,,,-99.99,,2013-02-20 00:11:00,
2013-02-19 19:22:00,29.0,28.0,-100.00,NE,39,9.0,24.0,89,0.00,,,-99.99,,2013-02-20 00:22:00,
2013-02-19 19:32:00,29.0,27.0,-100.00,ENE,59,11.0,24.0,88,0.00,,,-99.99,,2013-02-20 00:32:00,
2013-02-19 19:42:00,29.0,25.0,-100.00,NE,40,13.0,24.0,82,0.00,,,-99.99,,2013-02-20 00:42:00,
2013-02-19 19:52:00,27.0,23.0,-100.00,East,81,12.0,24.0,78,0.00,,,-99.99,,2013-02-20 00:52:00,
2013-02-19 20:02:00,28.0,23.0,-100.00,NNE,18,14.0,24.0,75,0.00,,,-99.99,,2013-02-20 01:02:00,
2013-02-19 20:11:00,29.0,23.0,-100.00,NE,45,9.0,24.0,73,0.00,,,-99.99,,2013-02-20 01:11:00,
2013-02-19 20:22:00,29.0,21.0,-100.00,NNE,26,11.0,24.0,71,0.00,,,-99.99,,2013-02-20 01:22:00,
2013-02-19 20:32:00,28.0,21.0,-100.00,East,83,11.0,24.0,69,0.00,,,-99.99,,2013-02-20 01:32:00,
2013-02-19 20:42:00,29.0,21.0,-100.00,NE,52,9.0,24.0,71,0.00,,,-99.99,,2013-02-20 01:42:00,
2013-02-19 20:52:00,29.0,21.0,-100.00,NE,36,7.0,24.0,71,0.00,,,-99.99,,2013-02-20 01:52:00,
2013-02-19 21:02:00,29.0,21.0,-100.00,ESE,111,8.0,24.0,72,0.00,,,-99.99,,2013-02-20 02:02:00,
2013-02-19 21:11:00,28.0,21.0,-100.00,ENE,64,9.0,24.0,73,0.00,,,-99.99,,2013-02-20 02:11:00,
2013-02-19 21:22:00,28.0,21.0,-100.00,East,97,9.0,24.0,76,0.00,,,-99.99,,2013-02-20 02:22:00,
2013-02-19 21:32:00,28.0,23.0,-100.00,NE,42,9.0,24.0,77,0.00,,,-99.99,,2013-02-20 02:32:00,
2013-02-19 21:42:00,28.0,21.0,-100.00,ENE,60,12.0,24.0,75,0.00,,,-99.99,,2013-02-20 02:42:00,
2013-02-19 21:52:00,27.0,19.0,-100.00,NE,46,16.0,24.0,69,0.00,,,-99.99,,2013-02-20 02:52:00,
2013-02-19 22:02:00,28.0,19.0,-100.00,East,80,17.0,24.0,69,0.00,,,-99.99,,2013-02-20 03:02:00,
2013-02-19 22:12:00,27.0,19.0,-100.00,ESE,103,13.0,24.0,69,0.00,,,-99.99,,2013-02-20 03:12:00,
2013-02-19 22:22:00,27.0,19.0,-100.00,ENE,57,12.0,24.0,69,0.00,,,-99.99,,2013-02-20 03:22:00,
2013-02-19 22:32:00,25.0,18.0,-100.00,East,79,12.0,24.0,68,0.00,,,-99.99,,2013-02-20 03:32:00,
2013-02-19 22:42:00,26.0,19.0,-100.00,ENE,74,12.0,24.0,71,0.00,,,-99.99,,2013-02-20 03:42:00,
2013-02-19 22:52:00,25.0,18.0,-100.00,NE,52,12.0,24.0,71,0.00,,,-99.99,,2013-02-20 03:52:00,
2013-02-19 23:01:00,26.0,19.0,-100.00,NE,55,11.0,24.0,71,0.00,,,-99.99,,2013-02-20 04:01:00,
2013-02-19 23:11:00,25.0,18.0,-100.00,ENE,72,12.0,24.0,71,0.00,,,-99.99,,2013-02-20 04:11:00,
2013-02-19 23:21:00,25.0,18.0,-100.00,East,79,11.0,24.0,71,0.00,,,-99.99,,2013-02-20 04:21:00,
2013-02-19 23:32:00,24.0,18.0,-100.00,ENE,72,11.0,24.0,71,0.00,,,-99.99,,2013-02-20 04:32:00,
2013-02-19 23:42:00,23.0,16.0,-100.00,ESE,103,8.0,24.0,69,0.00,,,-99.99,,2013-02-20 04:42:00,
2013-02-19 23:52:00,25.0,18.0,-100.00,East,80,7.0,24.0,71,0.00,,,-99.99,,2013-02-20 04:52:00,